Hourly Weather Starachowice

Today, 21 September, Monday

Time Temperature Precipitation Wind Pressure Humidity
00:00 +12°C° 0 mm 2 mps 742 mmHg 69%
01:00 +12°C° 0 mm 2 mps 742 mmHg 71%
02:00 +10°C° 0 mm 2 mps 742 mmHg 71%
03:00 +10°C° 0 mm 2 mps 742 mmHg 71%
04:00 +11°C° 0 mm 1 mps 741 mmHg 71%
05:00 +11°C° 0 mm 1 mps 741 mmHg 69%
06:00 +12°C° 0 mm 1 mps 742 mmHg 67%
07:00 +13°C° 0 mm 1 mps 742 mmHg 62%
08:00 +15°C° 0 mm 1 mps 742 mmHg 57%
09:00 +18°C° 0 mm 1 mps 742 mmHg 52%
10:00 +21°C° 0 mm 1 mps 742 mmHg 46%
11:00 +22°C° 0 mm 1 mps 742 mmHg 43%
12:00 +23°C° 0 mm 1 mps 742 mmHg 40%
13:00 +24°C° 0 mm 1 mps 742 mmHg 38%
14:00 +24°C° 0 mm 1 mps 742 mmHg 40%
15:00 +23°C° 0 mm 1 mps 741 mmHg 43%
16:00 +23°C° 0 mm 1 mps 741 mmHg 45%
17:00 +21°C° 0 mm 1 mps 741 mmHg 50%
18:00 +19°C° 0 mm 1 mps 741 mmHg 55%
19:00 +16°C° 0 mm 1 mps 741 mmHg 59%
20:00 +16°C° 0 mm 1 mps 741 mmHg 60%
21:00 +15°C° 0 mm 1 mps 741 mmHg 61%
22:00 +15°C° 0 mm 1 mps 741 mmHg 62%
23:00 +14°C° 0 mm 1 mps 740 mmHg 63%

Tomorrow, 22 September, Tuesday

Time Temperature Precipitation Wind Pressure Humidity
00:00 +14°C° 0 mm 1 mps 740 mmHg 63%
01:00 +14°C° 0 mm 1 mps 740 mmHg 64%
02:00 +14°C° 0 mm 1 mps 740 mmHg 65%
03:00 +13°C° 0 mm 1 mps 740 mmHg 65%
04:00 +13°C° 0 mm 1 mps 740 mmHg 66%
05:00 +14°C° 0 mm 1 mps 740 mmHg 64%
06:00 +15°C° 0 mm 1 mps 740 mmHg 63%
07:00 +16°C° 0 mm 1 mps 740 mmHg 61%
08:00 +18°C° 0 mm 2 mps 740 mmHg 55%
09:00 +20°C° 0 mm 2 mps 740 mmHg 49%
10:00 +24°C° 0 mm 2 mps 740 mmHg 43%
11:00 +24°C° 0 mm 2 mps 740 mmHg 41%
12:00 +25°C° 0 mm 2 mps 739 mmHg 39%
13:00 +26°C° 0 mm 2 mps 739 mmHg 37%
14:00 +26°C° 0 mm 2 mps 739 mmHg 39%
15:00 +25°C° 0 mm 2 mps 738 mmHg 42%
16:00 +25°C° 0 mm 2 mps 738 mmHg 44%
17:00 +23°C° 0 mm 2 mps 737 mmHg 48%
18:00 +20°C° 0 mm 2 mps 737 mmHg 51%
19:00 +18°C° 0 mm 2 mps 737 mmHg 55%
20:00 +17°C° 0 mm 2 mps 737 mmHg 57%
21:00 +17°C° 0 mm 2 mps 737 mmHg 60%
22:00 +16°C° 0 mm 2 mps 736 mmHg 62%
23:00 +16°C° 0 mm 2 mps 736 mmHg 62%

Day after tomorrow, 23 September, Wednesday

Time Temperature Precipitation Wind Pressure Humidity
00:00 +15°C° 0 mm 2 mps 736 mmHg 63%
01:00 +15°C° 0 mm 2 mps 736 mmHg 64%
02:00 +14°C° 0 mm 2 mps 735 mmHg 64%
03:00 +14°C° 0 mm 2 mps 735 mmHg 64%
04:00 +14°C° 0 mm 2 mps 735 mmHg 64%
05:00 +15°C° 0 mm 2 mps 735 mmHg 63%
06:00 +15°C° 0 mm 2 mps 735 mmHg 61%
07:00 +16°C° 0 mm 2 mps 735 mmHg 60%
08:00 +19°C° 0 mm 2 mps 735 mmHg 54%
09:00 +21°C° 0 mm 3 mps 735 mmHg 48%
10:00 +25°C° 0 mm 3 mps 735 mmHg 42%
11:00 +26°C° 0 mm 3 mps 734 mmHg 41%
12:00 +27°C° 0 mm 3 mps 734 mmHg 39%
13:00 +28°C° 0 mm 3 mps 734 mmHg 37%
14:00 +27°C° 0 mm 3 mps 734 mmHg 41%
15:00 +27°C° 0 mm 2 mps 733 mmHg 44%
16:00 +26°C° 0 mm 2 mps 733 mmHg 47%
17:00 +24°C° 0 mm 2 mps 733 mmHg 51%
18:00 +23°C° 0 mm 1 mps 733 mmHg 54%
19:00 +21°C° 0 mm 1 mps 733 mmHg 58%
20:00 +20°C° 0 mm 1 mps 733 mmHg 59%
21:00 +20°C° 0 mm 1 mps 733 mmHg 60%
22:00 +19°C° 0 mm 1 mps 733 mmHg 61%
23:00 +19°C° 0 mm 1 mps 733 mmHg 62%

24 September, Thursday

Time Temperature Precipitation Wind Pressure Humidity
00:00 +18°C° 0 mm 1 mps 733 mmHg 63%
01:00 +18°C° 0 mm 1 mps 733 mmHg 64%
02:00 +16°C° 0 mm 1 mps 733 mmHg 64%
03:00 +16°C° 0 mm 1 mps 733 mmHg 65%
04:00 +16°C° 0 mm 1 mps 733 mmHg 66%
05:00 +16°C° 0 mm 1 mps 733 mmHg 66%
06:00 +18°C° 0 mm 1 mps 733 mmHg 65%
07:00 +18°C° 0 mm 1 mps 733 mmHg 65%
08:00 +20°C° 0 mm 1 mps 734 mmHg 61%
09:00 +21°C° 0 mm 2 mps 734 mmHg 57%
10:00 +24°C° 0 mm 2 mps 734 mmHg 53%
11:00 +25°C° 0.2 mm 2 mps 734 mmHg 52%
12:00 +26°C° 0.2 mm 3 mps 734 mmHg 52%
13:00 +26°C° 0.2 mm 3 mps 734 mmHg 51%
14:00 +26°C° 0.5 mm 3 mps 734 mmHg 55%
15:00 +25°C° 0.5 mm 2 mps 734 mmHg 58%
16:00 +25°C° 0.5 mm 2 mps 734 mmHg 62%
17:00 +23°C° 0.5 mm 2 mps 734 mmHg 67%
18:00 +21°C° 0.5 mm 1 mps 734 mmHg 72%
19:00 +20°C° 0.5 mm 1 mps 734 mmHg 77%
20:00 +19°C° 0.2 mm 1 mps 734 mmHg 78%
21:00 +19°C° 0.2 mm 1 mps 735 mmHg 78%
22:00 +17°C° 0.2 mm 0 mps 735 mmHg 79%
23:00 +18°C° 0 mm 1 mps 734 mmHg 81%

25 September, Friday

Time Temperature Precipitation Wind Pressure Humidity
00:00 +18°C° 0 mm 1 mps 734 mmHg 82%
01:00 +18°C° 0 mm 1 mps 734 mmHg 84%
02:00 +18°C° 0 mm 1 mps 734 mmHg 86%
03:00 +16°C° 0 mm 2 mps 733 mmHg 88%
04:00 +16°C° 0 mm 2 mps 733 mmHg 89%
05:00 +16°C° 0 mm 2 mps 733 mmHg 87%
06:00 +17°C° 0 mm 3 mps 732 mmHg 86%
07:00 +17°C° 0 mm 4 mps 732 mmHg 84%
08:00 +19°C° 0 mm 5 mps 732 mmHg 77%
09:00 +20°C° 0 mm 6 mps 731 mmHg 70%
10:00 +22°C° 0 mm 7 mps 731 mmHg 63%
11:00 +23°C° 0 mm 7 mps 731 mmHg 59%
12:00 +24°C° 0 mm 7 mps 730 mmHg 55%
13:00 +26°C° 0 mm 8 mps 730 mmHg 50%
14:00 +26°C° 0 mm 7 mps 730 mmHg 52%
15:00 +24°C° 0 mm 6 mps 729 mmHg 54%
16:00 +25°C° 0 mm 5 mps 729 mmHg 56%
17:00 +22°C° 0.1 mm 5 mps 728 mmHg 61%
18:00 +21°C° 0.1 mm 5 mps 728 mmHg 66%
19:00 +20°C° 0.1 mm 5 mps 728 mmHg 72%
20:00 +20°C° 0.3 mm 5 mps 728 mmHg 73%
21:00 +19°C° 0.3 mm 6 mps 727 mmHg 75%
22:00 +18°C° 0.3 mm 7 mps 727 mmHg 77%
23:00 +19°C° 0.3 mm 6 mps 727 mmHg 77%

26 September, Saturday

Time Temperature Precipitation Wind Pressure Humidity
00:00 +19°C° 0.3 mm 6 mps 727 mmHg 77%
01:00 +19°C° 0.3 mm 5 mps 727 mmHg 77%
02:00 +16°C° 0.2 mm 5 mps 727 mmHg 81%
03:00 +15°C° 0.2 mm 4 mps 727 mmHg 85%
04:00 +14°C° 0.2 mm 4 mps 728 mmHg 89%
05:00 +14°C° 0 mm 4 mps 728 mmHg 88%
06:00 +14°C° 0 mm 4 mps 729 mmHg 87%
07:00 +13°C° 0 mm 3 mps 729 mmHg 86%
08:00 +14°C° 0 mm 3 mps 730 mmHg 83%
09:00 +14°C° 0 mm 3 mps 730 mmHg 80%
10:00 +15°C° 0 mm 2 mps 731 mmHg 77%
11:00 +16°C° 0 mm 3 mps 731 mmHg 74%
12:00 +17°C° 0 mm 3 mps 731 mmHg 71%
13:00 +17°C° 0 mm 3 mps 731 mmHg 67%
14:00 +17°C° 0 mm 3 mps 731 mmHg 68%
15:00 +17°C° 0 mm 3 mps 731 mmHg 69%
16:00 +17°C° 0 mm 3 mps 730 mmHg 70%
17:00 +17°C° 0.6 mm 4 mps 730 mmHg 76%
18:00 +15°C° 0.6 mm 4 mps 730 mmHg 82%
19:00 +15°C° 0.6 mm 4 mps 729 mmHg 87%
20:00 +15°C° 1 mm 5 mps 729 mmHg 89%
21:00 +16°C° 1 mm 5 mps 728 mmHg 91%
22:00 +16°C° 1 mm 6 mps 727 mmHg 92%
23:00 +16°C° 0.5 mm 5 mps 727 mmHg 92%
Show more